| time (UTC) | temp F | wind direction | speed knots | gust knots | rain 1hr in | rain 24hr in | rain mn in | humidity % | barometer mb |
| 20260506201326 | 33 | 307 | 1.7 | 4.3 | 0.00 | 0.35 | 0.07 | 83 | 1008.9 |
| 20260506200819 | 34 | 313 | 1.7 | 3.5 | 0.00 | 0.35 | 0.07 | 83 | 1008.9 |
| 20260506200333 | 34 | 312 | 1.7 | 3.5 | 0.00 | 0.35 | 0.07 | 83 | 1008.9 |
| 20260506195823 | 34 | 332 | 0.9 | 2.6 | 0.00 | 0.35 | 0.07 | 82 | 1008.8 |
| 20260506195355 | 34 | 332 | 0.0 | 2.6 | 0.00 | 0.35 | 0.07 | 82 | 1008.8 |
| 20260506194827 | 34 | 332 | 0.9 | 2.6 | 0.00 | 0.35 | 0.07 | 81 | 1008.8 |
| 20260506194318 | 34 | 332 | 0.0 | 1.7 | 0.00 | 0.35 | 0.07 | 81 | 1008.8 |
| 20260506193830 | 34 | 332 | 0.9 | 1.7 | 0.00 | 0.35 | 0.07 | 81 | 1008.8 |
| 20260506193324 | 35 | 332 | 0.0 | 2.6 | 0.00 | 0.35 | 0.07 | 80 | 1008.7 |
| 20260506192856 | 35 | 332 | 0.0 | 2.6 | 0.00 | 0.35 | 0.07 | 80 | 1008.7 |
| 20260506192327 | 35 | 332 | 0.0 | 1.7 | 0.00 | 0.35 | 0.07 | 80 | 1008.7 |
| 20260506191818 | 35 | 332 | 0.0 | 2.6 | 0.00 | 0.35 | 0.07 | 80 | 1008.6 |
| 20260506191329 | 35 | 332 | 0.9 | 3.5 | 0.00 | 0.35 | 0.07 | 80 | 1008.7 |
| 20260506190819 | 35 | 330 | 0.9 | 3.5 | 0.00 | 0.35 | 0.07 | 79 | 1008.5 |
| 20260506190332 | 35 | 330 | 0.9 | 2.6 | 0.00 | 0.35 | 0.07 | 79 | 1008.5 |
| 20260506185822 | 36 | 330 | 0.9 | 2.6 | 0.00 | 0.35 | 0.07 | 79 | 1008.4 |
| 20260506185336 | 36 | 330 | 1.7 | 3.5 | 0.00 | 0.35 | 0.07 | 78 | 1008.4 |
| 20260506184832 | 36 | 328 | 0.9 | 5.2 | 0.00 | 0.35 | 0.07 | 78 | 1008.4 |
| 20260506184324 | 36 | 329 | 1.7 | 4.3 | 0.00 | 0.35 | 0.07 | 77 | 1008.3 |
| 20260506183856 | 37 | 330 | 1.7 | 7.0 | 0.00 | 0.35 | 0.07 | 76 | 1008.2 |
| 20260506183329 | 37 | 354 | 1.7 | 7.0 | 0.00 | 0.35 | 0.07 | 76 | 1008.2 |
| 20260506182819 | 37 | 349 | 1.7 | 7.8 | 0.00 | 0.35 | 0.07 | 76 | 1008.2 |
| 20260506182330 | 37 | 332 | 3.5 | 7.8 | 0.00 | 0.35 | 0.07 | 76 | 1008.1 |
| 20260506181823 | 37 | 337 | 2.6 | 5.2 | 0.00 | 0.35 | 0.07 | 77 | 1008.2 |
| 20260506181334 | 38 | 343 | 0.9 | 3.5 | 0.00 | 0.35 | 0.07 | 76 | 1008.2 |
| 20260506180827 | 38 | 345 | 1.7 | 3.5 | 0.00 | 0.35 | 0.07 | 77 | 1008.1 |
| 20260506180322 | 38 | 360 | 0.0 | 2.6 | 0.00 | 0.35 | 0.07 | 76 | 1008.1 |
| 20260506175833 | 38 | 360 | 0.0 | 4.3 | 0.00 | 0.35 | 0.07 | 76 | 1008.1 |
| 20260506175323 | 38 | 357 | 0.9 | 4.3 | 0.00 | 0.35 | 0.07 | 77 | 1008.0 |
| 20260506174816 | 38 | 339 | 1.7 | 4.3 | 0.00 | 0.35 | 0.07 | 76 | 1008.0 |
| 20260506174327 | 38 | 329 | 1.7 | 3.5 | 0.00 | 0.35 | 0.07 | 76 | 1008.0 |
| 20260506173840 | 38 | 323 | 0.9 | 5.2 | 0.00 | 0.35 | 0.07 | 76 | 1008.0 |
| 20260506173353 | 38 | 341 | 3.5 | 5.2 | 0.04 | 0.35 | 0.07 | 75 | 1008.0 |
| 20260506172825 | 38 | 358 | 1.7 | 7.0 | 0.04 | 0.35 | 0.07 | 75 | 1008.0 |
| 20260506172357 | 39 | 354 | 3.5 | 6.1 | 0.04 | 0.35 | 0.07 | 75 | 1007.9 |
| 20260506171827 | 39 | 353 | 3.5 | 6.1 | 0.04 | 0.35 | 0.07 | 76 | 1007.9 |
| 20260506171324 | 39 | 339 | 1.7 | 7.8 | 0.04 | 0.35 | 0.07 | 76 | 1007.8 |
| 20260506170835 | 39 | 308 | 1.7 | 7.8 | 0.04 | 0.35 | 0.07 | 76 | 1007.9 |
| 20260506170328 | 39 | 332 | 2.6 | 7.8 | 0.04 | 0.35 | 0.07 | 76 | 1007.8 |
| 20260506165816 | 39 | 330 | 2.6 | 7.8 | 0.04 | 0.35 | 0.07 | 75 | 1007.8 |
| 20260506165330 | 39 | 308 | 2.6 | 10.4 | 0.04 | 0.35 | 0.07 | 75 | 1007.8 |
| 20260506164844 | 40 | 23 | 5.2 | 10.4 | 0.04 | 0.35 | 0.07 | 74 | 1007.8 |
| 20260506164336 | 40 | 316 | 6.1 | 10.4 | 0.04 | 0.35 | 0.07 | 75 | 1007.7 |
| 20260506163847 | 40 | 319 | 5.2 | 11.3 | 0.04 | 0.35 | 0.07 | 75 | 1007.7 |
| 20260506163319 | 40 | 291 | 6.1 | 13.0 | 0.00 | 0.31 | 0.06 | 76 | 1007.7 |
| 20260506162853 | 40 | 326 | 5.2 | 11.3 | 0.00 | 0.31 | 0.06 | 78 | 1007.7 |
| 20260506162328 | 39 | 296 | 3.5 | 8.7 | 0.00 | 0.31 | 0.06 | 78 | 1007.6 |
| 20260506161818 | 39 | 281 | 3.5 | 8.7 | 0.00 | 0.31 | 0.06 | 77 | 1007.6 |
| 20260506161330 | 39 | 281 | 3.5 | 6.1 | 0.00 | 0.31 | 0.06 | 79 | 1007.6 |
| 20260506160823 | 38 | 297 | 3.5 | 7.0 | 0.00 | 0.31 | 0.06 | 81 | 1007.6 |
| 20260506160317 | 37 | 281 | 3.5 | 7.0 | 0.00 | 0.31 | 0.06 | 81 | 1007.6 |
| 20260506155828 | 37 | 261 | 3.5 | 9.6 | 0.00 | 0.31 | 0.06 | 78 | 1007.6 |
| 20260506155320 | 38 | 302 | 3.5 | 9.6 | 0.00 | 0.31 | 0.06 | 75 | 1007.5 |
| 20260506154815 | 39 | 281 | 3.5 | 7.0 | 0.00 | 0.31 | 0.06 | 74 | 1007.4 |
| 20260506154328 | 39 | 308 | 2.6 | 6.1 | 0.00 | 0.31 | 0.06 | 74 | 1007.4 |
| 20260506153840 | 39 | 341 | 2.6 | 6.1 | 0.00 | 0.31 | 0.06 | 73 | 1007.4 |
| 20260506153331 | 38 | 291 | 2.6 | 6.1 | 0.00 | 0.31 | 0.06 | 73 | 1007.4 |
| 20260506152823 | 39 | 231 | 1.7 | 6.1 | 0.00 | 0.31 | 0.06 | 71 | 1007.4 |
| 20260506152334 | 40 | 281 | 1.7 | 7.8 | 0.00 | 0.31 | 0.06 | 70 | 1007.4 |
| 20260506151827 | 40 | 275 | 2.6 | 7.8 | 0.00 | 0.31 | 0.06 | 67 | 1007.4 |
| 20260506151318 | 41 | 297 | 1.7 | 7.8 | 0.00 | 0.31 | 0.06 | 67 | 1007.4 |
| 20260506150831 | 42 | 296 | 3.5 | 7.8 | 0.00 | 0.31 | 0.06 | 64 | 1007.4 |
| 20260506150328 | 42 | 305 | 1.7 | 5.2 | 0.00 | 0.31 | 0.06 | 62 | 1007.3 |
| 20260506145816 | 43 | 314 | 1.7 | 7.8 | 0.00 | 0.31 | 0.06 | 60 | 1007.4 |
| 20260506145329 | 43 | 320 | 3.5 | 8.7 | 0.00 | 0.31 | 0.06 | 59 | 1007.3 |
| 20260506144820 | 44 | 332 | 4.3 | 8.7 | 0.00 | 0.31 | 0.06 | 60 | 1007.2 |
| 20260506144332 | 44 | 332 | 3.5 | 8.7 | 0.00 | 0.31 | 0.06 | 60 | 1007.2 |
| 20260506143821 | 45 | 349 | 1.7 | 7.0 | 0.00 | 0.31 | 0.06 | 60 | 1007.2 |
| 20260506143355 | 45 | 6 | 2.6 | 7.8 | 0.00 | 0.31 | 0.06 | 59 | 1007.3 |
| 20260506142825 | 45 | 268 | 4.3 | 9.6 | 0.00 | 0.31 | 0.06 | 58 | 1007.1 |
| 20260506142317 | 45 | 331 | 5.2 | 9.6 | 0.00 | 0.31 | 0.06 | 60 | 1007.1 |
| 20260506141835 | 44 | 334 | 2.6 | 9.6 | 0.00 | 0.31 | 0.06 | 62 | 1007.1 |
| 20260506141326 | 44 | 23 | 2.6 | 12.2 | 0.00 | 0.31 | 0.06 | 61 | 1007.1 |
| 20260506140835 | 44 | 342 | 2.6 | 12.2 | 0.00 | 0.31 | 0.06 | 59 | 1007.1 |
| 20260506140327 | 44 | 31 | 5.2 | 10.4 | 0.00 | 0.31 | 0.06 | 61 | 1007.1 |
| 20260506135817 | 44 | 341 | 4.3 | 10.4 | 0.00 | 0.31 | 0.06 | 60 | 1007.0 |
| 20260506135330 | 44 | 306 | 2.6 | 8.7 | 0.00 | 0.31 | 0.06 | 60 | 1007.0 |
| 20260506134818 | 43 | 286 | 2.6 | 9.6 | 0.00 | 0.31 | 0.06 | 60 | 1007.0 |
| 20260506134329 | 43 | 320 | 3.5 | 9.6 | 0.00 | 0.31 | 0.06 | 60 | 1006.9 |
| 20260506133842 | 43 | 312 | 2.6 | 7.8 | 0.00 | 0.31 | 0.06 | 60 | 1006.9 |
| 20260506133318 | 44 | 311 | 3.5 | 8.7 | 0.00 | 0.31 | 0.06 | 58 | 1007.0 |
| 20260506132850 | 45 | 309 | 4.3 | 9.6 | 0.00 | 0.31 | 0.06 | 56 | 1007.0 |
| 20260506132323 | 46 | 331 | 5.2 | 9.6 | 0.00 | 0.31 | 0.06 | 54 | 1006.9 |
| 20260506131835 | 47 | 341 | 4.3 | 10.4 | 0.00 | 0.31 | 0.06 | 52 | 1006.8 |
| 20260506131326 | 48 | 315 | 3.5 | 11.3 | 0.00 | 0.31 | 0.06 | 54 | 1006.8 |
| 20260506130816 | 47 | 326 | 5.2 | 11.3 | 0.00 | 0.31 | 0.06 | 55 | 1006.8 |
| 20260506130329 | 47 | 323 | 7.0 | 10.4 | 0.00 | 0.31 | 0.06 | 57 | 1006.8 |
| 20260506125818 | 46 | 336 | 5.2 | 10.4 | 0.00 | 0.31 | 0.06 | 58 | 1006.8 |
| 20260506125330 | 45 | 308 | 5.2 | 9.6 | 0.00 | 0.31 | 0.06 | 61 | 1006.8 |
| 20260506124821 | 45 | 338 | 3.5 | 10.4 | 0.00 | 0.31 | 0.06 | 60 | 1006.8 |
| 20260506124332 | 46 | 315 | 4.3 | 12.2 | 0.00 | 0.31 | 0.06 | 55 | 1006.8 |
| 20260506123824 | 47 | 327 | 6.1 | 12.2 | 0.00 | 0.31 | 0.06 | 56 | 1006.7 |
| 20260506123316 | 46 | 354 | 4.3 | 9.6 | 0.00 | 0.31 | 0.06 | 54 | 1006.7 |
| 20260506122828 | 47 | 296 | 4.3 | 8.7 | 0.00 | 0.31 | 0.06 | 57 | 1006.6 |
| 20260506122318 | 47 | 296 | 5.2 | 8.7 | 0.00 | 0.31 | 0.06 | 55 | 1006.6 |
| 20260506121831 | 46 | 268 | 4.3 | 9.6 | 0.00 | 0.31 | 0.06 | 57 | 1006.6 |
| 20260506121343 | 45 | 325 | 3.5 | 10.4 | 0.00 | 0.31 | 0.06 | 57 | 1006.6 |
| 20260506120818 | 45 | 286 | 5.2 | 10.4 | 0.00 | 0.31 | 0.06 | 58 | 1006.6 |
| 20260506120331 | 44 | 336 | 3.5 | 8.7 | 0.00 | 0.31 | 0.06 | 62 | 1006.5 |
| 20260506115823 | 44 | 310 | 3.5 | 8.7 | 0.00 | 0.31 | 0.06 | 60 | 1006.5 |
| 20260506115334 | 42 | 322 | 4.3 | 8.7 | 0.00 | 0.31 | 0.06 | 64 | 1006.5 |
| 20260506114828 | 42 | 339 | 2.6 | 9.6 | 0.00 | 0.31 | 0.06 | 63 | 1006.5 |
| 20260506114317 | 42 | 317 | 4.3 | 10.4 | 0.00 | 0.31 | 0.06 | 65 | 1006.5 |
| 20260506113831 | 42 | 308 | 6.1 | 10.4 | 0.00 | 0.31 | 0.06 | 65 | 1006.4 |
| 20260506113343 | 43 | 313 | 4.3 | 10.4 | 0.00 | 0.31 | 0.06 | 65 | 1006.4 |
| 20260506112833 | 43 | 317 | 2.6 | 8.7 | 0.00 | 0.31 | 0.06 | 63 | 1006.3 |
| 20260506112330 | 43 | 4 | 5.2 | 8.7 | 0.00 | 0.31 | 0.06 | 61 | 1006.2 |
| 20260506111822 | 44 | 33 | 3.5 | 7.8 | 0.00 | 0.31 | 0.06 | 63 | 1006.2 |
| 20260506111335 | 44 | 330 | 4.3 | 8.7 | 0.00 | 0.31 | 0.06 | 64 | 1006.2 |
| 20260506110826 | 45 | 286 | 2.6 | 8.7 | 0.00 | 0.31 | 0.06 | 61 | 1006.1 |
| 20260506110320 | 46 | 286 | 3.5 | 7.8 | 0.00 | 0.31 | 0.06 | 60 | 1006.1 |
| 20260506105852 | 46 | 335 | 4.3 | 9.6 | 0.00 | 0.31 | 0.06 | 64 | 1006.0 |
| 20260506105344 | 46 | 318 | 4.3 | 8.7 | 0.00 | 0.31 | 0.06 | 62 | 1006.0 |
| 20260506104836 | 46 | 337 | 1.7 | 8.7 | 0.00 | 0.31 | 0.06 | 64 | 1006.0 |
| 20260506104326 | 46 | 301 | 2.6 | 8.7 | 0.00 | 0.31 | 0.06 | 68 | 1005.9 |
| 20260506103821 | 45 | 286 | 2.6 | 7.8 | 0.00 | 0.31 | 0.06 | 68 | 1005.8 |
| 20260506103334 | 44 | 281 | 2.6 | 8.7 | 0.00 | 0.31 | 0.06 | 72 | 1005.7 |
| 20260506102817 | 43 | 338 | 2.6 | 7.8 | 0.00 | 0.31 | 0.06 | 70 | 1005.8 |
| 20260506102329 | 44 | 328 | 4.3 | 8.7 | 0.00 | 0.31 | 0.06 | 71 | 1005.8 |
| 20260506101818 | 43 | 351 | 3.5 | 8.7 | 0.00 | 0.31 | 0.06 | 76 | 1005.7 |
| 20260506100821 | 43 | 353 | 6.1 | 9.6 | 0.00 | 0.31 | 0.06 | 71 | 1005.7 |
| 20260506100333 | 43 | 313 | 5.2 | 9.6 | 0.00 | 0.31 | 0.06 | 73 | 1005.6 |
| 20260506095837 | 43 | 328 | 4.3 | 8.7 | 0.00 | 0.31 | 0.06 | 74 | 1005.6 |
| 20260506095328 | 42 | 327 | 3.5 | 8.7 | 0.00 | 0.31 | 0.06 | 78 | 1005.6 |
| 20260506094825 | 42 | 345 | 3.5 | 9.6 | 0.04 | 0.31 | 0.06 | 81 | 1005.5 |
| 20260506094337 | 41 | 62 | 3.5 | 9.6 | 0.04 | 0.31 | 0.06 | 74 | 1005.5 |
| 20260506093826 | 41 | 322 | 5.2 | 9.6 | 0.04 | 0.31 | 0.06 | 80 | 1005.5 |
| 20260506093320 | 40 | 354 | 1.7 | 10.4 | 0.08 | 0.31 | 0.06 | 81 | 1005.4 |
| 20260506092831 | 39 | 339 | 1.7 | 10.4 | 0.08 | 0.31 | 0.06 | 84 | 1005.4 |
| 20260506092322 | 38 | 303 | 3.5 | 8.7 | 0.08 | 0.31 | 0.06 | 79 | 1005.5 |
| 20260506091836 | 38 | 329 | 5.2 | 9.6 | 0.08 | 0.31 | 0.06 | 78 | 1005.4 |
| 20260506091326 | 38 | 317 | 4.3 | 9.6 | 0.12 | 0.31 | 0.06 | 81 | 1005.4 |
| 20260506090823 | 38 | 24 | 1.7 | 8.7 | 0.12 | 0.31 | 0.06 | 79 | 1005.3 |
| 20260506090316 | 38 | 347 | 3.5 | 8.7 | 0.12 | 0.31 | 0.06 | 83 | 1005.1 |
| 20260506085829 | 37 | 347 | 4.3 | 8.7 | 0.12 | 0.31 | 0.06 | 81 | 1005.2 |
| 20260506085318 | 37 | 335 | 0.9 | 7.8 | 0.12 | 0.31 | 0.06 | 81 | 1005.1 |
| 20260506084831 | 37 | 360 | 4.3 | 7.8 | 0.08 | 0.28 | 0.06 | 84 | 1005.1 |
| 20260506084320 | 37 | 347 | 2.6 | 7.8 | 0.12 | 0.28 | 0.06 | 87 | 1005.1 |
| 20260506083833 | 36 | 16 | 0.9 | 7.8 | 0.12 | 0.28 | 0.06 | 86 | 1005.0 |
| 20260506083326 | 36 | 8 | 2.6 | 7.8 | 0.08 | 0.24 | 0.05 | 85 | 1005.0 |
| 20260506082821 | 36 | 335 | 3.5 | 7.8 | 0.08 | 0.24 | 0.05 | 86 | 1005.0 |
| 20260506082355 | 36 | 355 | 2.6 | 7.0 | 0.08 | 0.24 | 0.05 | 86 | 1004.9 |
| 20260506081821 | 36 | 23 | 2.6 | 7.0 | 0.12 | 0.24 | 0.05 | 87 | 1004.9 |
| 20260506081352 | 35 | 53 | 3.5 | 7.0 | 0.08 | 0.20 | 0.04 | 88 | 1004.9 |
| 20260506080818 | 35 | 1 | 1.7 | 6.1 | 0.08 | 0.20 | 0.04 | 88 | 1004.8 |
| 20260506080331 | 35 | 333 | 0.9 | 4.3 | 0.08 | 0.20 | 0.04 | 87 | 1004.7 |
| 20260506073331 | 34 | 342 | 2.6 | 7.0 | 0.12 | 0.16 | 0.03 | 88 | 1004.4 |
| 20260506072821 | 34 | 343 | 2.6 | 5.2 | 0.12 | 0.16 | 0.03 | 89 | 1004.3 |
| 20260506072335 | 34 | 341 | 0.9 | 7.8 | 0.12 | 0.16 | 0.03 | 89 | 1004.3 |
| 20260506071827 | 34 | 348 | 4.3 | 10.4 | 0.08 | 0.12 | 0.02 | 88 | 1004.1 |
| 20260506071319 | 34 | 351 | 4.3 | 10.4 | 0.08 | 0.12 | 0.02 | 88 | 1004.1 |
| 20260506070831 | 34 | 323 | 3.5 | 8.7 | 0.08 | 0.12 | 0.02 | 88 | 1004.1 |
| 20260506070325 | 34 | 322 | 4.3 | 7.8 | 0.08 | 0.12 | 0.02 | 89 | 1004.0 |
| 20260506062322 | 33 | 3 | 1.7 | 5.2 | 0.04 | 0.04 | 0.01 | 91 | 1003.7 |
| 20260506061833 | 33 | 16 | 1.7 | 3.5 | 0.04 | 0.04 | 0.01 | 92 | 1003.6 |
| 20260506061346 | 32 | 360 | 0.0 | 2.6 | 0.04 | 0.04 | 0.01 | 92 | 1003.5 |
| 20260506060857 | 32 | 2 | 0.9 | 2.6 | 0.04 | 0.04 | 0.01 | 92 | 1003.5 |
| 20260506060328 | 32 | 360 | 0.0 | 3.5 | 0.04 | 0.04 | 0.01 | 92 | 1003.4 |
| 20260506051331 | 31 | 359 | 2.6 | 3.5 | 0.00 | 0.00 | 0.00 | 93 | 1003.1 |
| 20260506050823 | 31 | 17 | 0.9 | 2.6 | 0.00 | 0.00 | 0.00 | 94 | 1003.1 |
| 20260506050317 | 31 | 41 | 0.9 | 3.5 | 0.00 | 0.00 | 0.00 | 94 | 1003.0 |
| 20260506044831 | 31 | 24 | 0.0 | 2.6 | 0.00 | 0.00 | 0.00 | 95 | 1002.8 |
| 20260506044323 | 31 | 27 | 0.0 | 1.7 | 0.00 | 0.00 | 0.00 | 95 | 1002.7 |
| 20260506043833 | 30 | 27 | 0.0 | 0.0 | 0.00 | 0.00 | 0.00 | 95 | 1002.7 |
| 20260506043330 | 30 | 27 | 0.0 | 0.0 | 0.00 | 0.00 | 0.00 | 96 | 1002.7 |
| 20260506042818 | 30 | 27 | 0.0 | 0.0 | 0.00 | 0.00 | 0.00 | 96 | 1002.7 |
| 20260506042331 | 30 | 27 | 0.0 | 0.0 | 0.00 | 0.00 | 0.00 | 96 | 1002.6 |
| 20260506041820 | 30 | 27 | 0.0 | 0.0 | 0.00 | 0.00 | 0.00 | 96 | 1002.6 |
| 20260506041333 | 30 | 27 | 0.0 | 0.0 | 0.00 | 0.00 | 0.00 | 96 | 1002.5 |
| 20260506040842 | 30 | 27 | 0.0 | 0.0 | 0.00 | 0.00 | 0.00 | 96 | 1002.4 |
| 20260506040332 | 30 | 27 | 0.0 | 0.0 | 0.00 | 0.00 | 0.00 | 96 | 1002.4 |
| 20260506035844 | 30 | 27 | 0.0 | 0.0 | 0.00 | 0.00 | 0.00 | 96 | 1002.4 |
| 20260506035316 | 30 | 27 | 0.0 | 0.0 | 0.00 | 0.00 | 0.00 | 96 | 1002.3 |
| 20260506034828 | 30 | 27 | 0.0 | 0.9 | 0.00 | 0.00 | 0.00 | 96 | 1002.3 |
| 20260506034324 | 30 | 27 | 0.0 | 0.9 | 0.00 | 0.00 | 0.00 | 96 | 1002.2 |
| 20260506033857 | 30 | 27 | 0.0 | 0.0 | 0.00 | 0.00 | 0.00 | 96 | 1002.2 |
| 20260506033328 | 30 | 27 | 0.0 | 0.0 | 0.00 | 0.00 | 0.00 | 96 | 1002.2 |
| 20260506032837 | 29 | 27 | 0.0 | 0.0 | 0.00 | 0.00 | 0.00 | 96 | 1002.2 |
| 20260506032330 | 29 | 27 | 0.0 | 0.9 | 0.00 | 0.00 | 0.00 | 96 | 1002.2 |
| 20260506031820 | 29 | 27 | 0.0 | 1.7 | 0.00 | 0.00 | 0.00 | 95 | 1002.1 |
| 20260506031332 | 29 | 27 | 0.9 | 1.7 | 0.00 | 0.00 | 0.00 | 95 | 1002.1 |
| 20260506030825 | 29 | 25 | 0.0 | 0.0 | 0.00 | 0.00 | 0.00 | 95 | 1002.1 |
| 20260506030334 | 29 | 26 | 0.0 | 0.0 | 0.00 | 0.00 | 0.00 | 95 | 1002.1 |
| 20260506025829 | 29 | 26 | 0.0 | 0.0 | 0.00 | 0.00 | 0.00 | 95 | 1002.1 |
| 20260506025320 | 29 | 26 | 0.0 | 0.0 | 0.00 | 0.00 | 0.00 | 95 | 1002.0 |
| 20260506024832 | 29 | 26 | 0.0 | 0.0 | 0.00 | 0.00 | 0.00 | 95 | 1001.9 |
| 20260506024324 | 29 | 26 | 0.0 | 0.0 | 0.00 | 0.00 | 0.00 | 95 | 1001.9 |
| 20260506023837 | 29 | 26 | 0.0 | 0.0 | 0.00 | 0.00 | 0.00 | 95 | 1001.9 |
| 20260506023328 | 29 | 26 | 0.0 | 0.0 | 0.00 | 0.00 | 0.00 | 95 | 1001.8 |
| 20260506022839 | 29 | 26 | 0.0 | 0.0 | 0.00 | 0.00 | 0.00 | 94 | 1001.8 |
| 20260506022329 | 29 | 26 | 0.0 | 0.0 | 0.00 | 0.00 | 0.00 | 94 | 1001.8 |
| 20260506021818 | 29 | 26 | 0.0 | 0.0 | 0.00 | 0.00 | 0.00 | 94 | 1001.8 |
| 20260506021330 | 29 | 26 | 0.0 | 0.0 | 0.00 | 0.00 | 0.00 | 94 | 1001.7 |
| 20260506020827 | 30 | 26 | 0.0 | 0.0 | 0.00 | 0.00 | 0.00 | 94 | 1001.6 |
| 20260506020320 | 30 | 26 | 0.0 | 0.0 | 0.00 | 0.00 | 0.00 | 94 | 1001.6 |
| 20260506015830 | 30 | 26 | 0.0 | 0.0 | 0.00 | 0.00 | 0.00 | 94 | 1001.6 |
| 20260506015342 | 30 | 26 | 0.0 | 0.0 | 0.00 | 0.00 | 0.00 | 94 | 1001.5 |
| 20260506014833 | 30 | 26 | 0.0 | 0.0 | 0.00 | 0.00 | 0.00 | 94 | 1001.5 |
| 20260506014325 | 30 | 26 | 0.0 | 0.0 | 0.00 | 0.00 | 0.00 | 94 | 1001.4 |
| 20260506013816 | 30 | 26 | 0.0 | 0.0 | 0.00 | 0.00 | 0.00 | 94 | 1001.3 |
| 20260506013330 | 30 | 26 | 0.0 | 0.0 | 0.00 | 0.00 | 0.00 | 93 | 1001.3 |
| 20260506012825 | 30 | 26 | 0.0 | 0.0 | 0.00 | 0.00 | 0.00 | 93 | 1001.3 |
| 20260506012338 | 30 | 26 | 0.0 | 0.0 | 0.00 | 0.00 | 0.00 | 93 | 1001.2 |
| 20260506011850 | 30 | 26 | 0.0 | 0.0 | 0.00 | 0.00 | 0.00 | 93 | 1001.2 |
| 20260506011320 | 30 | 26 | 0.0 | 0.0 | 0.00 | 0.00 | 0.00 | 93 | 1001.2 |
| 20260506010852 | 29 | 26 | 0.0 | 0.0 | 0.00 | 0.00 | 0.00 | 93 | 1001.2 |
| 20260506010323 | 29 | 26 | 0.0 | 0.0 | 0.00 | 0.00 | 0.00 | 93 | 1001.1 |
| 20260506005814 | 29 | 26 | 0.0 | 0.0 | 0.00 | 0.00 | 0.00 | 92 | 1001.1 |
| 20260506005349 | 29 | 26 | 0.0 | 0.0 | 0.00 | 0.00 | 0.00 | 92 | 1001.1 |
| 20260506004818 | 29 | 26 | 0.0 | 1.7 | 0.00 | 0.00 | 0.00 | 92 | 1001.0 |
| 20260506004331 | 29 | 26 | 0.0 | 1.7 | 0.00 | 0.00 | 0.00 | 92 | 1001.1 |
| 20260506003835 | 29 | 26 | 0.0 | 2.6 | 0.00 | 0.00 | 0.00 | 92 | 1001.0 |
| 20260506003331 | 29 | 26 | 0.0 | 2.6 | 0.00 | 0.00 | 0.00 | 92 | 1001.0 |
| 20260506002823 | 29 | 22 | 0.0 | 1.7 | 0.00 | 0.00 | 0.00 | 92 | 1001.0 |
| 20260506002333 | 29 | 22 | 0.0 | 1.7 | 0.00 | 0.00 | 0.00 | 92 | 1001.0 |
| 20260506001848 | 30 | 22 | 0.0 | 0.0 | 0.00 | 0.00 | 0.00 | 92 | 1001.0 |
| 20260506001317 | 30 | 22 | 0.0 | 0.0 | 0.00 | 0.00 | 0.00 | 92 | 1001.0 |
| 20260506000850 | 30 | 22 | 0.0 | 0.0 | 0.00 | 0.00 | 0.00 | 91 | 1001.0 |
| 20260506000323 | 30 | 22 | 0.0 | 0.0 | 0.00 | 0.00 | 0.00 | 91 | 1001.0 |
| 20260505235833 | 30 | 22 | 0.0 | 0.0 | 0.00 | 0.00 | 0.00 | 91 | 1001.0 |
| 20260505235325 | 30 | 22 | 0.0 | 5.2 | 0.00 | 0.00 | 0.00 | 90 | 1001.0 |
| 20260505234819 | 30 | 22 | 0.9 | 5.2 | 0.00 | 0.00 | 0.00 | 89 | 1001.0 |
| 20260505234353 | 30 | 2 | 0.0 | 1.7 | 0.00 | 0.00 | 0.00 | 88 | 1001.0 |
| 20260505233822 | 30 | 358 | 0.0 | 0.0 | 0.00 | 0.00 | 0.00 | 88 | 1001.0 |
| 20260505233315 | 30 | 358 | 0.0 | 0.0 | 0.00 | 0.00 | 0.00 | 88 | 1000.9 |
| 20260505232829 | 30 | 358 | 0.0 | 0.0 | 0.00 | 0.00 | 0.00 | 88 | 1001.0 |
| 20260505232321 | 30 | 358 | 0.0 | 1.7 | 0.00 | 0.00 | 0.00 | 88 | 1000.9 |
| 20260505231831 | 30 | 358 | 0.0 | 1.7 | 0.00 | 0.00 | 0.00 | 87 | 1001.0 |
| 20260505231324 | 30 | 358 | 0.9 | 2.6 | 0.00 | 0.00 | 0.00 | 87 | 1001.0 |
| 20260505230815 | 30 | 352 | 0.9 | 2.6 | 0.00 | 0.00 | 0.00 | 87 | 1001.0 |
| 20260505230349 | 30 | 349 | 0.0 | 2.6 | 0.00 | 0.00 | 0.00 | 87 | 1001.0 |
| 20260505225821 | 30 | 350 | 0.0 | 2.6 | 0.00 | 0.00 | 0.00 | 86 | 1001.0 |
| 20260505225333 | 30 | 350 | 0.0 | 1.7 | 0.00 | 0.00 | 0.00 | 87 | 1001.0 |
| 20260505224844 | 30 | 350 | 0.0 | 0.0 | 0.00 | 0.00 | 0.00 | 87 | 1001.1 |
| 20260505224334 | 30 | 350 | 0.0 | 0.0 | 0.00 | 0.00 | 0.00 | 86 | 1001.1 |
| 20260505223846 | 30 | 348 | 0.0 | 0.0 | 0.00 | 0.00 | 0.00 | 86 | 1001.1 |
| 20260505223337 | 30 | 349 | 0.0 | 0.0 | 0.00 | 0.00 | 0.00 | 87 | 1001.1 |
| 20260505222829 | 30 | 349 | 0.0 | 0.0 | 0.00 | 0.00 | 0.00 | 86 | 1001.0 |
| 20260505222322 | 30 | 348 | 0.0 | 0.9 | 0.00 | 0.00 | 0.00 | 86 | 1001.0 |
| 20260505221835 | 30 | 349 | 0.0 | 0.9 | 0.00 | 0.00 | 0.00 | 86 | 1001.0 |
| 20260505221325 | 30 | 348 | 0.0 | 0.0 | 0.00 | 0.00 | 0.00 | 87 | 1001.0 |
| 20260505220839 | 30 | 348 | 0.0 | 0.0 | 0.00 | 0.00 | 0.00 | 87 | 1001.0 |
| 20260505220351 | 30 | 348 | 0.0 | 0.0 | 0.00 | 0.00 | 0.00 | 86 | 1001.0 |
| 20260505215841 | 30 | 349 | 0.0 | 1.7 | 0.00 | 0.00 | 0.00 | 86 | 1001.0 |
| 20260505215330 | 30 | 348 | 0.0 | 2.6 | 0.00 | 0.00 | 0.00 | 86 | 1001.0 |
| 20260505214823 | 30 | 348 | 0.9 | 2.6 | 0.00 | 0.00 | 0.00 | 86 | 1001.2 |
| 20260505214316 | 30 | 348 | 0.0 | 2.6 | 0.00 | 0.00 | 0.00 | 85 | 1001.1 |
| 20260505213847 | 30 | 348 | 0.9 | 2.6 | 0.00 | 0.00 | 0.00 | 85 | 1001.1 |
| 20260505213338 | 30 | 349 | 0.0 | 0.0 | 0.00 | 0.00 | 0.00 | 85 | 1001.1 |
| 20260505212829 | 30 | 349 | 0.0 | 0.9 | 0.00 | 0.00 | 0.00 | 85 | 1001.1 |
| 20260505212322 | 30 | 349 | 0.0 | 0.9 | 0.00 | 0.00 | 0.00 | 85 | 1001.1 |
| 20260505211833 | 30 | 349 | 0.0 | 1.7 | 0.00 | 0.00 | 0.00 | 85 | 1001.2 |
| 20260505211345 | 30 | 349 | 0.9 | 1.7 | 0.00 | 0.00 | 0.00 | 85 | 1001.1 |
| 20260505210818 | 30 | 349 | 0.0 | 0.9 | 0.00 | 0.00 | 0.00 | 85 | 1001.2 |
| 20260505210331 | 30 | 349 | 0.0 | 0.9 | 0.00 | 0.00 | 0.00 | 85 | 1001.2 |
| 20260505205822 | 30 | 349 | 0.0 | 0.9 | 0.00 | 0.00 | 0.00 | 85 | 1001.2 |
| 20260505205315 | 30 | 349 | 0.0 | 1.7 | 0.00 | 0.00 | 0.00 | 85 | 1001.2 |
| 20260505204827 | 30 | 349 | 0.9 | 1.7 | 0.00 | 0.00 | 0.00 | 85 | 1001.1 |
| 20260505204338 | 30 | 348 | 0.9 | 1.7 | 0.00 | 0.00 | 0.00 | 84 | 1001.1 |
| 20260505203828 | 30 | 346 | 0.0 | 0.9 | 0.00 | 0.00 | 0.00 | 84 | 1001.1 |
| 20260505203341 | 31 | 346 | 0.0 | 0.9 | 0.00 | 0.00 | 0.00 | 84 | 1001.1 |
| 20260505202854 | 31 | 346 | 0.0 | 1.7 | 0.00 | 0.00 | 0.00 | 84 | 1001.1 |
| 20260505202325 | 31 | 346 | 0.0 | 2.6 | 0.00 | 0.00 | 0.00 | 83 | 1001.2 |
| 20260505201819 | 31 | 346 | 1.7 | 3.5 | 0.00 | 0.00 | 0.00 | 83 | 1001.2 |